Pineville, WV

6:38 AM EST on December 06, 2019 (GMT -0500)
Pineville

Weather History for KI16 - October, 2019

Change the Weather History Date:

Friday, October 18, 2019

  Actual Average (KBKW) Record (KBKW)
Temperature  
Mean Temperature 48 °F 53 °F  
Max Temperature 64 °F 63 °F 86 °F (1938)
Min Temperature 33 °F 42 °F 20 °F (1930)
Degree Days  
Heating Degree Days 16 13  
Month to date heating degree days 186  
Since 1 July heating degree days 320  
Cooling Degree Days 0 0  
Month to date cooling degree days 2  
Year to date cooling degree days 552  
Moisture  
Dew Point 37 °F    
Average Humidity 76    
Maximum Humidity 99    
Minimum Humidity 28    
Precipitation  
Precipitation 0.00 in 0.08 in 1.16 in (1990)
Month to date precipitation 1.45  
Year to date precipitation 34.12  
Snow  
Snow 0.00 in 0.00 in 1.50 in (1948)
Month to date snowfall 0.1  
Since 1 September snowfall 0.1  
Snow Depth -    
Sea Level Pressure  
Sea Level Pressure 30.08 in    
Wind  
Wind Speed - (North)    
Max Wind Speed -    
Max Gust Speed -    
Visibility 10 miles    
Events      
T = Trace of Precipitation, MM = Missing Value Source: NWS Daily Summary

Daily Weather History Graph

Daily Weather History Graph

Search for Another Location

Airport or City:

Astronomy

Oct. 18, 2019 Rise Set
Actual Time 7:37 AM EDT 6:45 PM EDT
Civil Twilight 7:10 AM EDT 7:11 PM EDT
Nautical Twilight 6:40 AM EDT 7:42 PM EDT
Astronomical Twilight 6:09 AM EDT 8:12 PM EDT
Moon 10:05 PM EDT (10/18) 12:04 PM EDT (10/18)
Length of Visible Light 12h 01m
Length of Day
11h 08m
Waning Gibbous, 79% of the Moon is Illuminated
Oct 18
Waning Gibbous
Oct 21
Last Quarter
Oct 27
New
Nov 4
First Quarter
Nov 12
Full

Hourly Weather History & Observations

Time (EDT) Temp. Dew Point Humidity Pressure Visibility Wind Dir Wind Speed Gust Speed Precip Events Conditions
12:15 AM 39.6 °F 37.6 °F 93% 30.05 in 10.0 mi North - - N/A   Clear
12:35 AM 39.2 °F 37.6 °F 94% 30.05 in 10.0 mi North - - N/A   Mostly Cloudy
12:55 AM 39.6 °F 37.8 °F 93% 30.05 in 10.0 mi North - - N/A   Overcast
1:15 AM 39.0 °F 37.4 °F 94% 30.04 in 10.0 mi North - - N/A   Scattered Clouds
1:35 AM 38.5 °F 37.2 °F 95% 30.04 in 10.0 mi North - - N/A   Clear
1:55 AM 38.3 °F 36.9 °F 95% 30.05 in 10.0 mi North - - N/A   Clear
2:15 AM 37.9 °F 36.5 °F 95% 30.04 in 10.0 mi North - - N/A   Clear
2:35 AM 37.4 °F 36.3 °F 96% 30.04 in 10.0 mi North - - N/A   Unknown
2:55 AM 36.9 °F 35.8 °F 96% 30.04 in 10.0 mi North - - N/A   Unknown
3:15 AM 36.5 °F 35.6 °F 97% 30.05 in 10.0 mi North - - N/A   Unknown
3:35 AM 36.3 °F 35.1 °F 95% 30.05 in 10.0 mi North - - N/A   Unknown
3:55 AM 36.0 °F 35.1 °F 97% 30.05 in 10.0 mi North - - N/A   Unknown
4:15 AM 36.0 °F 35.1 °F 97% 30.05 in 10.0 mi North - - N/A   Unknown
4:35 AM 35.6 °F 34.7 °F 97% 30.05 in 10.0 mi North - - N/A   Unknown
4:55 AM 35.1 °F 34.2 °F 97% 30.06 in 10.0 mi North - - N/A   Unknown
5:15 AM 34.9 °F 34.0 °F 97% 30.07 in 10.0 mi North - - N/A   Unknown
5:35 AM 34.9 °F 34.2 °F 97% 30.08 in 10.0 mi North - - N/A   Unknown
5:55 AM 34.7 °F 34.0 °F 97% 30.08 in 10.0 mi North - - N/A   Clear
6:15 AM 34.7 °F 33.8 °F 97% 30.09 in 10.0 mi North - - N/A   Clear
6:35 AM 34.2 °F 33.6 °F 98% 30.10 in 10.0 mi North - - N/A   Unknown
6:55 AM 34.3 °F 33.6 °F 97% 30.10 in 10.0 mi North - - N/A   Unknown
7:15 AM 33.8 °F 33.3 °F 98% 30.10 in 10.0 mi North - - N/A   Unknown
7:35 AM 33.4 °F 32.9 °F 98% 30.11 in 10.0 mi North - - N/A   Unknown
7:55 AM 33.4 °F 32.9 °F 98% 30.11 in 10.0 mi North - - N/A   Unknown
8:15 AM 33.8 °F 33.1 °F 97% 30.11 in 10.0 mi North - - N/A   Unknown
8:35 AM 34.0 °F 33.8 °F 99% 30.13 in 10.0 mi North - - N/A   Unknown
8:55 AM 35.1 °F 34.7 °F 99% 30.13 in 10.0 mi North - - N/A   Unknown
9:15 AM 37.9 °F 37.4 °F 98% 30.14 in 10.0 mi North - - N/A   Unknown
9:35 AM 40.3 °F 39.0 °F 95% 30.14 in 10.0 mi North - - N/A   Unknown
9:55 AM 44.1 °F 40.6 °F 88% 30.14 in 10.0 mi North - - N/A   Clear
10:15 AM 46.4 °F 41.4 °F 83% 30.14 in 10.0 mi North - - N/A   Clear
10:35 AM 49.5 °F 42.6 °F 77% 30.14 in 10.0 mi North - - N/A   Clear
10:55 AM 50.9 °F 42.6 °F 73% 30.14 in 10.0 mi North - - N/A   Clear
11:15 AM 52.7 °F 42.3 °F 68% 30.14 in 10.0 mi North - - N/A   Clear
11:35 AM 54.9 °F 40.5 °F 58% 30.14 in 10.0 mi North - - N/A   Clear
11:55 AM 56.1 °F 39.0 °F 53% 30.14 in 10.0 mi North - - N/A   Clear
12:15 PM 57.2 °F 38.7 °F 50% 30.13 in 10.0 mi North - - N/A   Clear
12:35 PM 58.3 °F 36.7 °F 45% 30.12 in 10.0 mi North - - N/A   Clear
1:15 PM 60.8 °F 35.1 °F 38% 30.10 in 10.0 mi North - - N/A   Clear
1:35 PM 60.1 °F 34.3 °F 38% 30.10 in 10.0 mi North - - N/A   Clear
1:55 PM 61.3 °F 33.4 °F 35% 30.10 in 10.0 mi North - - N/A   Clear
2:15 PM 61.9 °F 31.3 °F 32% 30.09 in 10.0 mi North - - N/A   Clear
2:35 PM 62.8 °F 33.4 °F 33% 30.08 in 10.0 mi North - - N/A   Clear
2:55 PM 63.3 °F 33.1 °F 32% 30.08 in 10.0 mi North - - N/A   Clear
3:15 PM 62.6 °F 31.6 °F 31% 30.08 in 10.0 mi North - - N/A   Clear
3:35 PM 64.2 °F 32.0 °F 30% 30.07 in 10.0 mi North - - N/A   Clear
3:55 PM 64.8 °F 31.1 °F 28% 30.07 in 10.0 mi North - - N/A   Clear
4:15 PM 64.4 °F 34.0 °F 32% 30.08 in 10.0 mi North - - N/A   Clear
4:35 PM 63.3 °F 34.5 °F 34% 30.07 in 10.0 mi North - - N/A   Clear
4:55 PM 62.8 °F 33.1 °F 33% 30.06 in 10.0 mi North - - N/A   Clear
5:15 PM 57.6 °F 39.7 °F 51% 30.06 in 10.0 mi North - - N/A   Clear
5:35 PM 55.6 °F 38.5 °F 53% 30.05 in 10.0 mi North - - N/A   Clear
5:55 PM 54.7 °F 37.4 °F 52% 30.06 in 10.0 mi North - - N/A   Clear
6:15 PM 53.2 °F 39.7 °F 60% 30.05 in 10.0 mi North - - N/A   Clear
6:35 PM 52.5 °F 38.1 °F 58% 30.06 in 10.0 mi North - - N/A   Clear
6:55 PM 50.9 °F 40.8 °F 68% 30.06 in 10.0 mi North - - N/A   Clear
7:15 PM 48.7 °F 40.3 °F 73% 30.06 in 10.0 mi North - - N/A   Clear
7:35 PM 47.7 °F 39.6 °F 73% 30.07 in 10.0 mi North - - N/A   Clear
7:55 PM 45.7 °F 39.2 °F 78% 30.08 in 10.0 mi North - - N/A   Clear
8:15 PM 45.1 °F 39.4 °F 80% 30.08 in 10.0 mi North - - N/A   Clear
8:35 PM 44.8 °F 38.5 °F 79% 30.08 in 10.0 mi North - - N/A   Clear
8:55 PM 44.1 °F 38.3 °F 80% 30.07 in 10.0 mi North - - N/A   Clear
9:15 PM 43.0 °F 38.3 °F 84% 30.08 in 10.0 mi North - - N/A   Clear
9:35 PM 42.4 °F 38.3 °F 85% 30.09 in 10.0 mi North - - N/A   Clear
9:55 PM 42.1 °F 38.1 °F 86% 30.09 in 10.0 mi North - - N/A   Clear
10:15 PM 41.4 °F 37.9 °F 88% 30.09 in 10.0 mi North - - N/A   Clear
10:35 PM 41.9 °F 38.5 °F 88% 30.09 in 10.0 mi North - - N/A   Clear
10:55 PM 41.0 °F 37.8 °F 88% 30.09 in 10.0 mi North - - N/A   Unknown
11:15 PM 40.5 °F 37.8 °F 90% 30.08 in 10.0 mi North - - N/A   Unknown
11:35 PM 39.7 °F 37.4 °F 91% 30.07 in 10.0 mi North - - N/A   Unknown
11:55 PM 40.1 °F 37.6 °F 91% 30.06 in 10.0 mi North - - N/A   Unknown